User: anonymous
Location: Unspecified
(0.0000°N, 0.0000°E)
Time: 23:37:21
(UTC+00:00)
Language:

PLEIADES 1B - Orbit

View from above orbital plane
View from above orbital plane
View from above satellite
View from above satellite

Ground track
Ground track

The orbit data is extracted from the following two-line orbital elements,

1 39019U 12068A   14203.45406047  .00000129  00000-0  37665-4 0  9037
2 39019 098.1982 277.9032 0001476 082.1808 277.9559 14.58576747 87098
Epoch (UTC): 22 July 2014 10:53:50
Eccentricity: 0.0001476
inclination: 98.1982°
perigee height: 697 km
apogee height: 699 km
right ascension of ascending node: 277.9032°
argument of perigee: 82.1808°
revolutions per day: 14.58576747
mean anomaly at epoch: 277.9559°
orbit number at epoch: 8709

The dashed part of the orbit path shows where the satellite is in the earth's shadow,  

DLR